Location: Glencliff
(36.1226°N, 86.7183°W)
Time: 11:06:59
(UTC+00:00)

Meteor 2-10 Rocket - Pass Details

Date: 25 August 2019
Orbit: 734 x 885 km, 81.2° (Epoch: 22 September)

Event Time Altitude Azimuth Distance (km) Brightness Sun altitude
Exits shadow 09:33:57 25° 197° (SSW) 1,642 4.8 -19.3°
Maximum altitude 09:37:20 75° 279° (W) 884 3.6 -18.7°
Drops below altitude 10° 09:43:05 10° 5° (N) 2,526 6.6 -17.7°
Sets 09:45:35 0° 7° (N) 3,480 7.4 -17.3°
